Fairbanks, AK

4:16 AM AKDT on May 23, 2017 (GMT -0800)
Fairbanks International

Weather History for PAFA - December, 2011

Change the Weather History Date:

Friday, December 2, 2011

  Actual Average Record
Temperature  
Mean Temperature 13 °F -2 °F  
Max Temperature 25 °F 6 °F 41 °F (1992)
Min Temperature 0 °F -11 °F -46 °F (1906)
Degree Days  
Heating Degree Days 52 67  
Month to date heating degree days 115 134  
Since 1 July heating degree days 4230 4265  
Cooling Degree Days 0 0  
Month to date cooling degree days 0 0  
Year to date cooling degree days 39 61  
Moisture  
Dew Point 12 °F    
Average Humidity 86    
Maximum Humidity 93    
Minimum Humidity 78    
Precipitation  
Precipitation 0.05 in 0.02 in 0.39 in (2014)
Month to date precipitation 0.06 0.04  
Year to date precipitation 8.65 10.21  
Snow  
Snow 0.40 in 0.30 in 6.30 in (1992)
Month to date snowfall 0.6 0.7  
Since 1 July snowfall 14.0 26.5  
Snow Depth 8.00 in    
Sea Level Pressure  
Sea Level Pressure 29.97 in    
Wind  
Wind Speed 4 mph (WSW)    
Max Wind Speed 16 mph    
Max Gust Speed 22 mph    
Visibility 5 miles    
Events Snow    
T = Trace of Precipitation, MM = Missing Value Source: NWS Daily Summary

Daily Weather History Graph

Daily Weather History Graph

Search for Another Location

Airport or City:

Trip Planner

Search our weather history database for the weather conditions in past years. The results will help you decide how hot, cold, wet, or windy it might be!

Date:

Astronomy

Dec. 02, 2011 Rise Set
Actual Time 10:21 AM AKST 2:59 PM AKST
Civil Twilight 9:06 AM AKST 4:14 PM AKST
Nautical Twilight 7:58 AM AKST 5:23 PM AKST
Astronomical Twilight 6:57 AM AKST 6:23 PM AKST
Moon 1:13 PM AKST (12/2) 12:17 AM AKST (12/2)
Length of Visible Light 7h 08m
Length of Day
4h 37m
First Quarter, 54% of the Moon is Illuminated
Dec 2
First Quarter
Dec 10
Full
Dec 17
Last Quarter
Dec 24
New
Dec 31
First Quarter

Hourly Weather History & Observations

Time (AKST) Temp. Windchill Dew Point Humidity Pressure Visibility Wind Dir Wind Speed Gust Speed Precip Events Conditions
12:53 AM 3.0 °F -4.4 °F -0.0 °F 87% 29.85 in 10.0 mi SE 3.5 mph - N/A   Scattered Clouds
1:53 AM 6.1 °F - 3.9 °F 91% 29.86 in 10.0 mi Calm Calm - N/A   Mostly Cloudy
3:53 AM 10.0 °F -0.9 °F 6.1 °F 84% 29.82 in 10.0 mi ENE 6.9 mph - N/A   Mostly Cloudy
4:53 AM 10.0 °F - 7.0 °F 87% 29.82 in 10.0 mi Calm Calm - 0.02 in   Mostly Cloudy
5:53 AM 8.1 °F - 6.1 °F 92% 29.83 in 10.0 mi Calm Calm - N/A   Mostly Cloudy
6:53 AM 10.9 °F 4.7 °F 8.1 °F 88% 29.82 in 10.0 mi NE 3.5 mph - N/A   Mostly Cloudy
7:53 AM 8.1 °F -0.5 °F 6.1 °F 92% 29.84 in 10.0 mi WNW 4.6 mph - N/A   Overcast
8:53 AM 8.1 °F -2.0 °F 5.0 °F 87% 29.86 in 10.0 mi NE 5.8 mph - 0.00 in Snow Light Snow
9:53 AM 6.1 °F - 3.9 °F 91% 29.85 in 10.0 mi Calm Calm - 0.00 in   Mostly Cloudy
10:53 AM 12.9 °F 5.2 °F 10.9 °F 92% 29.90 in 1.0 mi South 4.6 mph - 0.00 in Snow Light Snow
10:55 AM 12.2 °F 4.3 °F 10.4 °F 92% 29.86 in 1.0 mi South 4.6 mph - 0.00 in Snow Light Snow
11:08 AM 12.2 °F 4.3 °F 10.4 °F 92% 29.87 in 2.0 mi South 4.6 mph - 0.00 in Snow Light Snow
11:16 AM 14.0 °F - 10.4 °F 86% 29.86 in 3.0 mi Calm Calm - 0.00 in Snow Light Snow
11:23 AM 14.0 °F 8.2 °F 10.4 °F 86% 29.86 in 2.5 mi SE 3.5 mph - 0.00 in Snow Light Snow
11:28 AM 14.0 °F - 12.2 °F 93% 29.86 in 1.8 mi Calm Calm - 0.00 in Snow Light Snow
11:53 AM 15.1 °F - 12.0 °F 88% 29.90 in 1.8 mi Calm Calm - 0.00 in Snow Light Snow
12:00 PM 15.8 °F - 12.2 °F 86% 29.86 in 2.0 mi Calm Calm - 0.00 in Snow Light Snow
12:02 PM 15.8 °F - 12.2 °F 86% 29.86 in 1.2 mi Calm Calm - 0.00 in Snow Light Snow
12:11 PM 15.8 °F - 12.2 °F 86% 29.87 in 2.0 mi Calm Calm - 0.01 in Snow Light Snow
12:20 PM 15.8 °F - 12.2 °F 86% 29.87 in 2.5 mi Calm Calm - 0.01 in Snow Light Snow
12:26 PM 15.8 °F - 12.2 °F 86% 29.87 in 3.0 mi Calm Calm - 0.01 in Snow Light Snow
12:53 PM 17.1 °F 8.7 °F 14.0 °F 88% 29.92 in 6.0 mi SSW 5.8 mph - 0.01 in Snow Light Snow
1:53 PM 24.1 °F 16.0 °F 19.9 °F 84% 29.96 in 4.0 mi WSW 6.9 mph - 0.00 in Snow Light Snow
2:13 PM 24.8 °F 17.9 °F 21.2 °F 86% 29.94 in 2.0 mi WSW 5.8 mph - 0.00 in Snow Light Snow
2:19 PM 24.8 °F 17.9 °F 21.2 °F 86% 29.94 in 1.5 mi Variable 5.8 mph - 0.00 in Snow Light Snow
2:38 PM 24.8 °F 16.9 °F 21.2 °F 86% 29.95 in 2.0 mi WSW 6.9 mph - 0.01 in Snow Light Snow
2:53 PM 25.0 °F 12.2 °F 19.0 °F 78% 30.00 in 7.0 mi West 16.1 mph 21.9 mph 0.01 in Snow Light Snow
3:11 PM 24.8 °F 14.6 °F 19.4 °F 80% 29.98 in 3.0 mi WSW 10.4 mph 17.3 mph 0.00 in Snow Light Snow
3:43 PM 24.8 °F 20.5 °F 19.4 °F 80% 30.00 in 3.0 mi West 3.5 mph - 0.00 in Snow Light Snow
3:53 PM 23.0 °F 14.7 °F 19.0 °F 85% 30.04 in 1.5 mi WNW 6.9 mph - 0.00 in Snow Light Snow
3:56 PM 23.0 °F 17.0 °F 19.4 °F 86% 30.01 in 1.5 mi NW 4.6 mph - 0.00 in Snow Light Snow
4:19 PM 23.0 °F - 19.4 °F 86% 30.03 in 2.0 mi Calm Calm - 0.00 in Snow Light Snow
4:25 PM 23.0 °F 17.0 °F 19.4 °F 86% 30.03 in 3.0 mi WNW 4.6 mph - 0.00 in Snow Light Snow
4:49 PM 23.0 °F 14.7 °F 17.6 °F 80% 30.05 in 2.5 mi West 6.9 mph - 0.01 in Snow Light Snow
4:53 PM 23.0 °F 12.4 °F 18.0 °F 81% 30.08 in 2.5 mi West 10.4 mph - 0.01 in Snow Light Snow
5:38 PM 21.2 °F 9.5 °F 17.6 °F 86% 30.08 in 3.0 mi WNW 11.5 mph - 0.00 in Snow Light Snow
5:53 PM 21.9 °F 11.0 °F 17.1 °F 82% 30.13 in 5.0 mi West 10.4 mph 18.4 mph 0.00 in Snow Light Snow
6:53 PM 21.0 °F 9.9 °F 15.1 °F 78% 30.17 in 8.0 mi West 10.4 mph 19.6 mph 0.00 in Snow Light Snow
7:53 PM 15.1 °F 6.4 °F 10.9 °F 84% 30.21 in 10.0 mi South 5.8 mph - 0.00 in   Scattered Clouds
8:53 PM 14.0 °F 6.5 °F 10.0 °F 84% 30.23 in 10.0 mi SSE 4.6 mph - N/A   Partly Cloudy
9:53 PM 7.0 °F - 5.0 °F 92% 30.26 in 10.0 mi Calm Calm - N/A   Partly Cloudy
10:53 PM 1.9 °F - -0.0 °F 91% 30.28 in 10.0 mi Calm Calm - N/A   Clear
11:53 PM 3.9 °F -6.9 °F 1.9 °F 91% 30.31 in 10.0 mi SSE 5.8 mph - N/A   Clear